Weather History for Sanford, FL

Change the Weather History Date:

Tuesday, March 25, 2014

  Actual Average Record
Temperature  
Mean Temperature 68 °F -  
Max Temperature 75 °F 78 °F 90 °F (1974)
Min Temperature 59 °F 55 °F 35 °F (1968)
Cooling Degree Days 2    
Growing Degree Days 18 (Base 50)    
Moisture  
Dew Point 53 °F    
Average Humidity 74    
Maximum Humidity 90    
Minimum Humidity 28    
Precipitation  
Precipitation 0.00 in - - ()
Sea Level Pressure  
Sea Level Pressure 29.89 in    
Wind  
Wind Speed 10 mph (WNW)    
Max Wind Speed 25 mph    
Max Gust Speed 31 mph    
Visibility 9 miles    
Events Rain    
Averages and records for this station are not official NWS values.
T = Trace of Precipitation, MM = Missing Value Source: NWS Daily Summary

Daily Weather History Graph

Daily Weather History Graph

Search for Another Location

Airport:

Trip Planner

Search our weather history database for the weather conditions in past years. The results will help you decide how hot, cold, wet, or windy it might be!

Date:

Astronomy

Mar. 25, 2014 Rise Set
Actual Time 7:23 AM EDT 7:39 PM EDT
Civil Twilight 6:59 AM EDT 8:02 PM EDT
Nautical Twilight 6:31 AM EDT 8:30 PM EDT
Astronomical Twilight 6:03 AM EDT 8:58 PM EDT
Moon 3:19 AM EDT (3/25) 2:31 PM EDT (3/25)
Length of Visible Light 13h 03m
Length of Day
12h 16m
Waning Crescent, 32% of the Moon is Illuminated
Mar 25
Waning Crescent
Mar 30
New
Apr 7
First Quarter
Apr 15
Full
Apr 22
Last Quarter

Hourly Weather History & Observations

Time (EDT) Temp. Dew Point Humidity Pressure Visibility Wind Dir Wind Speed Gust Speed Precip Events Conditions
12:53 AM 63.0 °F 57.9 °F 84% 29.91 in 10.0 mi WNW 4.6 mph - N/A   Overcast
1:53 AM 62.1 °F 57.9 °F 86% 29.91 in 10.0 mi WNW 6.9 mph - N/A   Overcast
2:21 AM 61.0 °F 57.9 °F 90% 29.90 in 9.0 mi WNW 8.1 mph - 0.00 in   Overcast
2:53 AM 61.0 °F 57.9 °F 90% 29.88 in 8.0 mi West 5.8 mph - 0.00 in   Overcast
3:53 AM 61.0 °F 57.9 °F 90% 29.86 in 8.0 mi West 8.1 mph - N/A   Mostly Cloudy
4:04 AM 61.0 °F 57.9 °F 90% 29.87 in 8.0 mi WNW 9.2 mph - N/A   Mostly Cloudy
4:43 AM 61.0 °F 57.9 °F 90% 29.85 in 9.0 mi West 9.2 mph - N/A   Overcast
4:53 AM 61.0 °F 57.9 °F 90% 29.84 in 9.0 mi West 6.9 mph - N/A   Overcast
5:20 AM 62.1 °F 57.9 °F 86% 29.86 in 9.0 mi WNW 8.1 mph - N/A   Overcast
5:53 AM 61.0 °F 57.9 °F 90% 29.88 in 10.0 mi WNW 8.1 mph - 0.00 in Rain Light Rain
6:44 AM 61.0 °F 57.9 °F 90% 29.87 in 9.0 mi West 8.1 mph - 0.00 in   Overcast
6:53 AM 61.0 °F 57.9 °F 90% 29.88 in 9.0 mi WNW 8.1 mph - 0.00 in   Overcast
7:00 AM 61.0 °F 57.9 °F 90% 29.87 in 9.0 mi WNW 9.2 mph - N/A   Overcast
7:42 AM 61.0 °F 57.0 °F 87% 29.88 in 8.0 mi NW 8.1 mph - N/A   Overcast
7:53 AM 61.0 °F 57.0 °F 87% 29.89 in 8.0 mi NW 9.2 mph - N/A   Overcast
8:12 AM 61.0 °F 57.9 °F 90% 29.89 in 8.0 mi WNW 9.2 mph - N/A   Overcast
8:53 AM 62.1 °F 57.9 °F 86% 29.90 in 9.0 mi WNW 8.1 mph - N/A   Mostly Cloudy
9:15 AM 63.0 °F 59.0 °F 87% 29.91 in 10.0 mi WNW 13.8 mph - N/A   Scattered Clouds
9:25 AM 63.0 °F 59.0 °F 87% 29.91 in 10.0 mi WNW 13.8 mph - N/A   Mostly Cloudy
9:53 AM 64.0 °F 59.0 °F 84% 29.91 in 10.0 mi WNW 8.1 mph - N/A   Mostly Cloudy
10:53 AM 66.0 °F 59.0 °F 78% 29.93 in 10.0 mi WNW 10.4 mph - N/A   Overcast
11:26 AM 66.9 °F 59.0 °F 76% 29.92 in 10.0 mi WNW 12.7 mph - N/A   Overcast
11:44 AM 68.0 °F 59.0 °F 73% 29.92 in 10.0 mi NW 12.7 mph - N/A   Overcast
11:53 AM 69.1 °F 59.0 °F 70% 29.92 in 10.0 mi WNW 13.8 mph 23.0 mph N/A   Overcast
12:53 PM - - N/A% 29.90 in - North - - N/A   Mostly Cloudy
1:53 PM - - N/A% 29.88 in 10.0 mi WNW 13.8 mph - N/A   Overcast
2:53 PM - - N/A% 29.87 in - WNW 15.0 mph - N/A   Mostly Cloudy
3:53 PM - - N/A% 29.85 in 10.0 mi WNW 16.1 mph - N/A   Mostly Cloudy
4:53 PM 75.9 °F 51.1 °F 42% 29.82 in 10.0 mi West 25.3 mph 31.1 mph N/A   Clear
5:53 PM 73.0 °F 42.1 °F 33% 29.82 in 10.0 mi West 23.0 mph - N/A   Clear
6:53 PM 71.1 °F 36.0 °F 28% 29.84 in 10.0 mi West 20.7 mph 29.9 mph N/A   Clear
7:53 PM 66.0 °F 37.9 °F 36% 29.89 in 10.0 mi West 17.3 mph - N/A   Clear
8:53 PM 63.0 °F 39.0 °F 41% 29.92 in 10.0 mi West 16.1 mph 24.2 mph N/A   Clear
9:53 PM 62.1 °F 39.0 °F 43% 29.97 in 10.0 mi WNW 18.4 mph - N/A   Clear
10:53 PM 60.1 °F 41.0 °F 49% 30.01 in 10.0 mi NW 13.8 mph - N/A   Clear
11:53 PM 59.0 °F 28.0 °F 31% 30.05 in 10.0 mi NNW 16.1 mph 25.3 mph N/A   Clear